Location: Fishcreek Rd Observing Site
(41.1865°N, 81.4271°W)
Time: 12:11:17
(UTC-04:00)

Iridium 75 - Visible Passes

Search period start: 05 May 2016 00:00
Search period end: 15 May 2016 00:00
Orbit: 776 x 779 km, 86.4° (Epoch: 05 May)

Date Brightness Start Highest point End Pass type
(mag) Time Alt. Az. Time Alt. Az. Time Alt. Az.
05 May 7.4 01:14:12 10° NNW 01:17:41 32° NW 01:17:41 32° NW visible
05 May 8.1 23:01:38 10° NE 23:03:53 14° ENE 23:03:53 14° ENE visible
06 May 6.7 00:40:23 10° N 00:44:21 50° NNW 00:44:21 50° NNW visible
07 May 6.5 00:06:51 10° N 00:11:02 53° NNE 00:11:02 53° NNE visible
07 May 8.3 01:49:28 10° NW 01:51:31 14° WNW 01:51:31 14° WNW visible
07 May 7.0 23:33:37 10° NNE 23:37:43 34° ENE 23:37:43 34° ENE visible
08 May 7.7 01:14:41 10° NNW 01:18:12 25° WNW 01:18:12 25° WNW visible
08 May 7.6 23:00:50 10° NNE 23:04:24 20° ENE 23:04:24 20° ENE visible
09 May 6.9 00:40:38 10° NNW 00:44:53 44° WNW 00:44:53 44° WNW visible
09 May 8.2 22:29:29 10° ENE 22:30:44 11° ENE 22:31:06 11° ENE visible
10 May 6.2 00:06:55 10° N 00:11:35 71° NNW 00:11:35 71° NNW visible
10 May 6.4 23:33:30 10° N 23:38:17 51° ENE 23:38:17 51° ENE visible
11 May 8.0 01:15:24 10° NW 01:18:46 18° WNW 01:18:46 18° WNW visible
11 May 7.1 23:00:25 10° NNE 23:04:54 28° E 23:05:00 28° E visible
12 May 7.3 00:41:00 10° NNW 00:45:28 32° W 00:45:28 32° W visible
12 May 7.8 22:27:56 10° NE 22:31:05 16° ENE 22:31:42 16° E visible
13 May 6.3 00:07:05 10° N 00:12:11 60° W 00:12:11 60° W visible
13 May 5.9 23:33:29 10° N 23:38:44 75° E 23:38:55 74° ESE visible
14 May 8.4 01:16:38 10° NW 01:18:42 12° WNW 01:19:24 12° W visible
14 May 6.6 23:00:11 10° NNE 23:05:07 40° E 23:05:39 39° E visible
